星链-5760 (STARLINK-5760 )

导读 | 星芒AI

STARLINK-5760 是 SpaceX 星链计划中的一颗低轨通信卫星,属于第 17 批组网发射的星链卫星之一。该卫星运行在约 550 公里的近地轨道,旨在为全球用户提供高速互联网服务。作为星链星座的一部分,STARLINK-5760 采用先进推进系统和激光通信技术,支持高效数据传输和星座内互联。该卫星于 2021 年发射,是 SpaceX 打造全球宽带网络的重要组成,助力偏远地区实现网络覆盖。

基本信息
目录编号:
55591
目录名称:
STARLINK-5760
国际标识:
2023-020Y
轨道中心:
EARTH
卫星名称:
星链-5760
卫星全名:
星链-5760 (STARLINK-5760 )
卫星状态:
在轨 (已飞行1043 天)
发射日期:
2023-02-12 UTC
国别 :
美国 (US)
星等 :
--
轨道信息
数据来源 国际轨道数据 AOE轨道数据
星历时间 2025-12-21T14:18:33+0800
11小时前
查看轨道信息
2025-12-20T09:00:00+0800
1天前
查看轨道信息
半长轴 6937.227km 6937.258km
偏心率 0.0001295 0.0001136
轨道倾角 43.002° 43.003°
近地点辐角 282.438° 279.958°
升交点赤经 70.636° 77.275°
平近点角 77.632° 306.785°
近地点 558.191km 558.332km
远地点 559.989km 559.91km
周期 95.838分钟 95.839分钟
每日圈数 15.025329 15.025227
详细信息
固有亮度:
5
最大亮度:
2.5
卫星平台:
Starlink v1.5
覆盖范围:
全球
运营商:
太空探索技术公司
运营商所在国:
美国
制造商(研发单位):
太空探索技术公司
制造商所在国:
美国
使用方式:
暂无
卫星简介
星链(Starlink)计划是由太空探索技术公司(SpaceX)提出的一个巨型低轨卫星互联网星座项目,计划在2019年至2024年间在太空搭建由约1.2万颗卫星组成的“星链”网络,其中1584颗将部署在地球上空550千米处的近地轨道,并从2020年开始工作。该卫星仍在工作。
2D轨道图
3D轨道图
轨道高度分析图
轨道倾角分析图
轨道综合分析图
查看轨道综合分析图